DRAGON CRS-24 (50318 NORAD) Tracking and Keplerian Element Data

This shows tracking and keplerian element data for the satellite.

Feedback or suggestion? Click here.




ElementValue
Catalog50318
NameDRAGON CRS-24
Epoch Orbit524
Epoch Day24.24239617
Epoch Year2022
RAAN329.2624
Inclination51.6428
Eccentricity0.0140283
Argument of Perigee68.3239
Mean Anonmoly293.2582
Mean Motion15.98636115
Decay Rate0.00460259
L11 50318U 21127A 22024.24239617 .00460259 11413-4 29666-3 0 9996
L22 50318 51.6428 329.2624 0140283 68.3239 293.2582 15.98636115 5249

Live tracking and technical data element details for DRAGON CRS-24 (NORAD 50318). DRAGON CRS-24 can be tracked NOW for your location showing map with azimuth and elevation plus other details from your city location.

Track the satellite on the map from your city or location and see movement details for azimuth, elevation, latitude, longitude, range, height, and movement on the map or in text.







IsCatalogInMostPopularTable: catalog: 50318, numindb: 25
Update: records affected: 1



GetName: 50318 DRAGON CRS-24

Hit Count: updated at: Sun, 22 May 2022 05:36:24 GMT